San Jose del Cabo, Mexico

4:14 AM MDT on April 26, 2017 (GMT -0600)
Los Cabos International

Weather History for MMSD - April, 2013

Change the Weather History Date:

Monday, April 29, 2013

  Actual Average Record
Temperature  
Mean Temperature 78 °F -  
Max Temperature 91 °F 86 °F 96 °F (2002)
Min Temperature 66 °F 66 °F 60 °F (2006)
Cooling Degree Days 14    
Growing Degree Days 28 (Base 50)    
Moisture  
Dew Point 35 °F    
Average Humidity 20    
Maximum Humidity 53    
Minimum Humidity 9    
Precipitation  
Precipitation 0.00 in - - ()
Sea Level Pressure  
Sea Level Pressure 29.79 in    
Wind  
Wind Speed 6 mph ()    
Max Wind Speed 17 mph    
Max Gust Speed -    
Visibility 14.7 miles    
Events      
Averages and records for this station are not official NWS values.
T = Trace of Precipitation, MM = Missing Value Source: Averaged Metar Reports

Daily Weather History Graph

Daily Weather History Graph

Search for Another Location

Airport or City:

Trip Planner

Search our weather history database for the weather conditions in past years. The results will help you decide how hot, cold, wet, or windy it might be!

Date:

Astronomy

Apr. 29, 2013 Rise Set
Actual Time 6:46 AM MDT 7:45 PM MDT
Civil Twilight 6:23 AM MDT 8:09 PM MDT
Nautical Twilight 5:55 AM MDT 8:37 PM MDT
Astronomical Twilight 5:26 AM MDT 9:05 PM MDT
Moon No Moon Rise 10:21 AM MDT (4/29)
Length of Visible Light 13h 46m
Length of Day
12h 59m
Waning Gibbous, 79% of the Moon is Illuminated
Apr 29
Waning Gibbous
May 2
Last Quarter
May 9
New
May 17
First Quarter
May 24
Full

Hourly Weather History & Observations

Time (MDT) Temp. Heat Index Dew Point Humidity Pressure Visibility Wind Dir Wind Speed Gust Speed Precip Events Conditions
6:45 AM 66.2 °F - 26.6 °F 23% 29.82 in 15.0 mi NW 4.6 mph - N/A   Clear
7:27 AM 69.8 °F - 26.6 °F 20% 29.82 in 15.0 mi NNW 3.5 mph - N/A   Clear
7:43 AM 71.6 °F - 26.6 °F 19% 29.83 in 15.0 mi North 3.5 mph - N/A   Clear
8:29 AM 75.2 °F - 28.4 °F 18% 29.83 in 15.0 mi WNW 5.8 mph - N/A   Clear
8:45 AM 78.8 °F - 26.6 °F 15% 29.80 in 15.0 mi WNW 5.8 mph - N/A   Clear
9:24 AM 84.2 °F - 26.6 °F 12% 29.83 in 15.0 mi NNE 3.5 mph - N/A   Clear
9:41 AM 86.0 °F - 26.6 °F 12% 29.83 in 15.0 mi North 3.5 mph - N/A   Clear
10:08 AM 91.4 °F - 24.8 °F 9% 29.83 in 15.0 mi Calm Calm - N/A   Clear
10:40 AM 89.6 °F - 24.8 °F 10% 29.83 in 15.0 mi ENE 2.3 mph - N/A   Clear
11:45 AM 91.4 °F - 32.0 °F 12% 29.79 in 15.0 mi SSE 12.7 mph - N/A   Clear
12:49 PM 89.6 °F - 51.8 °F 27% 29.81 in 15.0 mi SSE 17.3 mph - N/A   Clear
1:40 PM 87.8 °F 85.7 °F 53.6 °F 31% 29.80 in 15.0 mi SSE 12.7 mph - N/A   Clear
2:40 PM 89.6 °F - 41.0 °F 18% 29.75 in 15.0 mi South 9.2 mph - N/A   Clear
3:40 PM 89.6 °F - 42.8 °F 20% 29.76 in 15.0 mi SSE 6.9 mph - N/A   Clear
4:42 PM 89.6 °F - 33.8 °F 14% 29.75 in 15.0 mi ESE 12.7 mph - N/A   Clear
5:52 PM 86.0 °F - 32.0 °F 14% 29.71 in 15.0 mi SE 10.4 mph - N/A   Clear
6:40 PM 84.2 °F - 30.2 °F 14% 29.74 in 15.0 mi SE 12.7 mph - N/A   Clear
7:42 PM 77.0 °F - 50.0 °F 39% 29.75 in 12.0 mi SE 10.4 mph - N/A   Clear
8:47 PM 75.2 °F - 57.2 °F 53% 29.74 in 12.0 mi SSW 3.5 mph - N/A   Clear